Погода в Буденновске

Погода в Буденновске : погода сейчас, прогноз погоды и архив. Всё, что Вы хотите узнать о погоде в Буденновске!

Хотите узнать прогноз погоды в Буденновске? Тогда Вам сюда: Погода в Буденновске

Поиск расширенной информации на нашем сайте:

Полезная информация:

Другие новости

Новости СМИ2

Главная страница сайта

Новости сайта

03.07.2017

Напоминаем, что на нашем специализированном сайте Метеоцентр.Азия вы можете получить высокодетализированные автоматические прогнозы погоды по пунктам России, СНГ и мира в авиационном формате (включающие направление и скорость ветра, видимость, явления погоды, количество и форму облачности, нижнюю и верхнюю границу облачности).

Рекомендуем:

Погода в Буденновске - сегодня

Время (UTC), дата Ветер
(°,м/с) 
Видим.   Явления Облачность Т
(°С)
Тd
(°С)
f(%) Тe
(°С)
Pmin
(гПа)
dP
(гПа)
Po
(мм)
O2
(г/м3)
Тmin Tmax R s Состояние
почвы
21 18.05.19 080 (В) 20000 м    4/0 средняя, верхняя 
[Ac trans|Ci fib]
+17.4 +13.6 78 +25  1009  0.3  745  279           
00 19.05.19 070 (В) 4000 м  дымка  10/10 600 м 
[Sc]
+16.6 +15.5 93 +27  1009  -0.1  745  280           
03 19.05.19 080 (В) 4000 м  дымка{туман}  9/3 300 м средняя, верхняя 
[Sc|Ac trans|Ci fib]
+17.9 +16.1 89 +29  1009.2  0.3  745  278  +16.1         
06 19.05.19 070 (В) 10 км  {туман}  9/8 600 м средняя, верхняя 
[Sc|Ac trans|Ci fib]
+20.2 +15.6 75 +30  1009.6  0.5  746  276           
09 19.05.19 050 (СВ) 10 км    9/6 1000 м средняя, верхняя 
[Cu hum|Ac trans|Ci fib]
+24 +13.9 53 +31  1010.2  0.7  746  274           
12 19.05.19 080 (В) 10 км  осадки на расстоянии  9/6 600 м кучево-дожд., средняя, верхняя 
[Cb calv|Ac trans|Ci fib]
+26.7 +12.1 40 +31  1009.5  -0.6  746  271           
15 19.05.19 010 (С) 10 км    9/0 средняя 
[Ac cuf]
+24.7 +10.7 41 +27  1010.5  0.9  746  274    +26.7       
18 19.05.19 360 (С) 20000 м    9/0 средняя 
[Ac cuf]
+20.6 +11.1 54 +23  1012  1.2  747  278           
21 19.05.19 030 (СВ) 20000 м    9/0 средняя 
[Ac trans]
+19.4 +9.8 54 +22  1012  -0.1  747  279           
00 20.05.19 050 (СВ) 20000 м    9/0 верхняя 
[Ci]
+17.4 +11.7 69 +23  1012.5  0.4  748  281           
03 20.05.19 010 (С) 10 км    10/0 средняя 
[Ac lent]
+17.3 +10.4 64 +21  1013.1  0.5  748  282  +15.5        сухая 
06 20.05.19 080 (В) 10 км    10/0 средняя 
[Ac lent]
+21.1 +13.4 61 +27  1014.5  1.6  749  278           
09 20.05.19 060 (СВ) 10 км  {ливн. осадки}  9/6 600 м средняя, верхняя 
[Sc|Ac trans|Ci fib]
+24.2 +11.5 45 +27  1015.1  0.8  750  275           
12 20.05.19 040 (СВ) 10 км  {ливн. осадки}  8/6 600 м средняя 
[Cu med, cong|Ac trans]
+26.1 +10.4 37 +28  1014.9  0.1  750  274           
15 20.05.19 180 (Ю) 10 км    9/8 600 м средняя 
[Sc|Ac trans]
+24.5 +13.1 49 +30  1015.3  0.3  750  275    +27.1  0.5     
18 20.05.19 030 (СВ) 20000 м    9/9 600 м 
[Sc]
+21.8 +4.5 32 +22  1016.9  1.4  751  280           
21 20.05.19 050 (СВ) 20000 м    ясно 
+16.5 +0.9 35 +17  1017.9  0.7  751  285           
00 21.05.19 060 (СВ) 20000 м    8/8 600 м 
[Sc]
+14 -0.7 36 +14  1019  0.9  752  288           
03 21.05.19 070 (В) 10 км    4/1 600 м средняя 
[Sc|Ac trans]
+13.9 +0.7 40 +14  1019.6  0.6  753  288  +13.2        сухая 
06 21.05.19 100 (В) 6{10}  10 км    3/0 верхняя 
[Ci fib]
+20.7 +8.6 46 +21  1019.7  0.4  753  281           
09 21.05.19 110 (В) 4{11}  10 км    1/1 600 м 
[Cu hum]
+24 +9.8 41 +25  1019.2  -0.3  753  277           
12 21.05.19 090 (В) 4{10}  10 км    3/3 600 м 
[Cu hum]
+26.1 +8.3 32 +26  1018.2  -0.9  752  275           
15 21.05.19 090 (В) 5-10  10 км    3/0 верхняя 
[Ci fib]
+23.3 +7.8 37 +23  1018.1  -0.3  752  278    +26.4       
18 21.05.19 100 (В) 5{12}  20000 м    1/0 верхняя 
[Ci fib]
+17.6 +7.1 50 +18  1019.7  1.2  753  284           
21 21.05.19 110 (В) 4{10}  20000 м    3/0 верхняя 
[Ci fib]
+14 +6.9 62 +14  1019.9  753  287           
Время (UTC), дата Ветер
(°,м/с) 
Видим.   Явления Облачность Т
(°С)
Тd
(°С)
f(%) Тe
(°С)
Pmin
(гПа)
dP
(гПа)
Po
(мм)
O2
(г/м3)
Тmin Tmax R s Состояние
почвы

Для получения пояснительной информации подведите курсор к названию столбца.

ПОГОДА в Буденновске - архив

Всё, что Вы хотите узнать о погоде в Буденновске - удобно и подробно!

Выберите нужную дату (начиная с 1 января 2018* года) и нажмите кнопку "Найти".
Будут отображены архивные сводки погоды по пункту Буденновск, начиная с указанной даты.


Отображать данные в формате CSV (для использования в таблицах Excel)


Внимание! Наш архив погоды предназначен исключительно для личного некоммерческого использования в познавательных целях. Если Вам необходимы официальные справки о состоянии погоды (для производственных, юридических, коммерческих и т.п. целей), обращайтесь в органы Росгидромета.

*Примечание: данная дата относится к архиву по метеостанциям СССР (Россия, СНГ, Балтия).
Архив по метеостанциям Зарубежной Европы и Азии (кроме Китая) хранится 10 дней, по другим регионам земного шара (Китай, Африка, Америка, Австралия, Океания) - 1 день.

Буденновск - район местоположения метеостанции


Название, широта, долгота, высота метеостанции:
Буденновск (Прикумск) 44.8°ш. 44.1°д. 136 м над ур. моря [Российская Федерация]

Дополнительная информация

В oтличие oт бoльшинства пoгoдных сайтoв мы публикуем пoдрoбную метеoинфoрмацию в детальнoм прoфессиoнальнoм фoрмате.

Характеристики температуры и влажнoсти вoздуха измеряются на высoте 2 м в тени вдали oт зданий и деревьев.
Скoрoсть ветра измеряется на высoте 10 м (на урoвне рoста челoвека скoрoсть ветра ниже в 1.5-2 раза). Если метеoстанция нахoдится в гoрoде или в лесу, тo скoрoсть ветра занижена на 2-4 м/с пo сравнению с oткрытым местoм. Скoрoсть ветра над акватoриями крупных рек и oзёр, а также на вершинах хoлмoв на 2-5 м/с выше, чем в oбычных услoвиях.
Атмoсфернoе давление в разных тoчках местнoсти мoжет значительнo oтличаться oт давления на метеoстанции, в зависимoсти oт услoвий рельефа (при пoдъёме на 10 м давление пoнижается примернo на 1 мм рт.ст.).